Location: Hengforden
(52.3167°N, 6.1333°E)
Time: 16:21:26
(UTC+00:00)

Cosmos 1953 - Pass Details

Date: 14 June 2025
Orbit: 485 x 500 km, 82.5° (Epoch: 19 July)

Event Time Altitude Azimuth Distance (km) Brightness Sun altitude
Rises 22:22:48 0° 342° (NNW) 2,605 7.9 -12.7°
Reaches altitude 10° 22:25:03 10° 333° (NNW) 1,718 6.3 -12.8°
Maximum altitude 22:28:27 33° 268° (W) 860 3.4 -12.9°
Enters shadow 22:31:14 14° 208° (SSW) 1,488 4.1 -13.1°
